Location: *
(44.3683°N, 6.6958°E)
Time: 13:48:19
(UTC+00:00)

CSL-04 Debris - Pass Details

Date: 14 October 2019
Orbit: 827 x 848 km, 99.0° (Epoch: 20 November)

Event Time Altitude Azimuth Distance (km) Brightness Sun altitude
Rises 18:03:46 0° 168° (SSE) 3,370 7.2 -13.7°
Reaches altitude 10° 18:06:06 10° 169° (S) 2,443 6.5 -14.1°
Maximum altitude 18:11:32 78° 256° (WSW) 863 4.3 -15.1°
Drops below altitude 10° 18:17:02 10° 343° (NNW) 2,474 6.9 -16.1°
Sets 18:19:25 0° 345° (NNW) 3,416 7.6 -16.5°
